Torna al catalogo

STARLINK-31532

AttivoComunicazioniVLEO
NORAD 59349·PAYLOAD·🇺🇸 United States

Lanciato Mar 31, 2024 da Cape Canaveral Space Force Station

Loading…

Prossimi Passaggi (prossime 24 ore)

TLE

AggiornatoSource: CelesTrak SupGP

Epoca: Sep 14, 2026, 21:18 UTC

1 59349C 24060B   26257.88798611  .00016871  00000+0  61129-3 0  2573
2 59349  42.9998 271.3707 0001513 266.6165 257.7694 15.27558181    16

Traccia STARLINK-31532 in tempo reale con AllMySat

Download on the App Store